星链-30394 (STARLINK-30394 )

导读

STARLINK-30394是美国于2023年9月9日发射的星链卫星,归属SpaceX星链互联网星座项目。星链项目旨在构建全球卫星互联网通信网络,为全球偏远地区等提供高速互联网接入服务。该卫星入轨后,将和其他星链卫星协同工作,进一步扩充星座网络覆盖范围与服务能力。

Basic Information
目录编号:
57810
目录名称:
STARLINK-30394
国际标识:
2023-138C
轨道中心:
EARTH
卫星名称:
星链-30394
卫星全名:
星链-30394 (STARLINK-30394 )
卫星状态:
在轨 (已飞行1098 天)
发射日期:
2023-09-09 UTC
国别 :
美国 (US)
星等 :
--
This satellite is enrolled in the Space Conjunction Data Service (SCDS) and the current flight risk assessment level is: High Risk
Orbit Information
数据来源 国际轨道数据 AOE轨道数据
星历时间 2026-09-11T10:06:49+0800
15小时前
查看轨道信息
2026-09-07T06:00:00+0800
4天前
查看轨道信息
半长轴 6861.105km 6861.199km
偏心率 0.0000918 0.0000458
轨道倾角 43.001° 43.003°
近地点辐角 255.609° 336.582°
升交点赤经 267.063° 290.625°
平近点角 104.466° 96.816°
近地点 482.338km 482.747km
远地点 483.598km 483.377km
周期 94.265分钟 94.267分钟
每日圈数 15.276071 15.275759
Detailed Information
固有亮度:
5
最大亮度:
0.3
卫星平台:
Starlink v2.0 mini
覆盖范围:
全球
运营商:
太空探索技术公司
运营商所在国:
美国
制造商(研发单位):
太空探索技术公司
制造商所在国:
美国
使用方式:
暂无
Satellite Introduction
星链(Starlink)计划是由太空探索技术公司(SpaceX)提出的一个巨型低轨卫星互联网星座项目,计划在2019年至2024年间在太空搭建由约1.2万颗卫星组成的“星链”网络,其中1584颗将部署在地球上空550千米处的近地轨道,并从2020年开始工作。该卫星仍在工作。
2D Orbit Map
3D Orbit Map
Orbit Altitude Analysis Chart
Orbit Inclination Analysis Chart
Orbit Comprehensive Analysis Chart
View Comprehensive Chart
Conjunction Data List
Event ID Objects TCA Miss Dist (km) Collision Risk Probability Collision Risk Index (CRI) Action
CDM_260913-132805-781005-951921
2026-09-13T
13:28:32+0000
0.477 km
远距离
1.370797E-4 高风险 0.78
CDM_260913-155905-724405-781021
2026-09-13T
15:59:45+0000
0.684 km
远距离
7.035842E-5 中风险 0.72
CDM_260913-045005-781005-951921
2026-09-13T
04:50:41+0000
0.920 km
远距离
1.958748E-5 中风险 0.61
CDM_260913-142505-724405-781021
2026-09-13T
14:25:36+0000
1.391 km
极远距离
6.557777E-6 低风险 0.51
CDM_260914-033005-781005-935621
2026-09-14T
03:30:55+0000
1.054 km
极远距离
6.46225E-6 低风险 0.51
CDM_260913-031605-781005-951921
2026-09-13T
03:16:32+0000
1.475 km
极远距离
3.951178E-6 低风险 0.47
CDM_260913-233505-781005-935621
2026-09-13T
23:35:32+0000
1.349 km
极远距离
2.846308E-6 低风险 0.44
CDM_260913-115405-781005-951921
2026-09-13T
11:54:23+0000
1.883 km
极远距离
1.939119E-6 低风险 0.41
CDM_260914-010905-781005-935621
2026-09-14T
01:09:41+0000
1.697 km
极远距离
1.443988E-6 低风险 0.38
CDM_260913-173305-724405-781021
2026-09-13T
17:33:54+0000
2.737 km
极远距离
1.202113E-6 低风险 0.37
Miss Distance Evolution Trend with All Objects
Collision Probability Evolution Trend with All Objects